Terug naar catalogus

DONGPO 12

ActiefWetenschapSSO
NORAD 68200·PAYLOAD·🇨🇳 China
Deze satellietnaam is nog niet bevestigd door officiële bronnen.

Gelanceerd Mar 16, 2026 vanaf Jiuquan Satellite Launch Center

Loading…

Volgende Passages (komende 24 uur)

TLE

VersSource: Space-Track

Epoch: Sep 14, 2026, 15:09 UTC

1 68200U 26052C   26257.63175105  .00002059  00000-0  12700-3 0  9990
2 68200  97.5293 331.0241 0001237  89.0763 271.0609 15.11037588 27545

Volg DONGPO 12 in realtime met AllMySat

Download on the App Store